When you browse on this site, cookies collect data to enhance your experience and personalize the content and advertising you see.
Visit our Privacy Policy to learn more. By continuing to use the site, you agree to this use of cookies and data.
  • In Czech Republic
  • List of Countries
  • For 7 days
  • Water Temperature
  • Weather Map
  • Weather Widgets
  • user-avatar
    Login

    Hourly Weather Pabna

    Today, 23 September, Monday

    Time Temperature Precipitation Wind Pressure Humidity
    00:00 +30°C° 0.6 mm 2 mps 755 mmHg 80%
    01:00 +29°C° 0.3 mm 2 mps 755 mmHg 81%
    02:00 +29°C° 0.3 mm 2 mps 754 mmHg 83%
    03:00 +29°C° 0.3 mm 2 mps 754 mmHg 84%
    04:00 +29°C° 0.5 mm 1 mps 755 mmHg 84%
    05:00 +28°C° 0.5 mm 1 mps 755 mmHg 84%
    06:00 +28°C° 0.5 mm 1 mps 755 mmHg 85%
    07:00 +29°C° 1.4 mm 2 mps 756 mmHg 82%
    08:00 +30°C° 1.4 mm 3 mps 756 mmHg 79%
    09:00 +32°C° 1.4 mm 4 mps 756 mmHg 76%
    10:00 +33°C° 0.2 mm 3 mps 756 mmHg 71%
    11:00 +34°C° 0.2 mm 3 mps 756 mmHg 67%
    12:00 +35°C° 0.2 mm 3 mps 755 mmHg 62%
    13:00 +35°C° 0.3 mm 3 mps 755 mmHg 62%
    14:00 +35°C° 0.3 mm 3 mps 754 mmHg 61%
    15:00 +35°C° 0.3 mm 3 mps 754 mmHg 61%
    16:00 +34°C° 2.6 mm 3 mps 754 mmHg 67%
    17:00 +33°C° 2.6 mm 3 mps 754 mmHg 73%
    18:00 +30°C° 2.6 mm 3 mps 754 mmHg 80%
    19:00 +30°C° 0.3 mm 3 mps 755 mmHg 82%
    20:00 +29°C° 0.3 mm 3 mps 755 mmHg 84%
    21:00 +29°C° 0.3 mm 3 mps 756 mmHg 86%
    22:00 +29°C° 0.1 mm 3 mps 756 mmHg 86%
    23:00 +29°C° 0.1 mm 2 mps 756 mmHg 87%

    Tomorrow, 24 September, Tuesday

    Time Temperature Precipitation Wind Pressure Humidity
    00:00 +28°C° 0.1 mm 2 mps 756 mmHg 87%
    01:00 +28°C° 0 mm 2 mps 756 mmHg 88%
    02:00 +28°C° 0 mm 2 mps 755 mmHg 88%
    03:00 +28°C° 0 mm 2 mps 755 mmHg 89%
    04:00 +28°C° 0.9 mm 2 mps 755 mmHg 89%
    05:00 +28°C° 0.9 mm 2 mps 756 mmHg 89%
    06:00 +28°C° 0.9 mm 2 mps 756 mmHg 89%
    07:00 +29°C° 0.6 mm 3 mps 756 mmHg 83%
    08:00 +32°C° 0.6 mm 4 mps 757 mmHg 77%
    09:00 +33°C° 0.6 mm 5 mps 757 mmHg 71%
    10:00 +33°C° 0.6 mm 5 mps 757 mmHg 69%
    11:00 +34°C° 0.6 mm 5 mps 757 mmHg 67%
    12:00 +35°C° 0.6 mm 5 mps 756 mmHg 64%
    13:00 +34°C° 0.9 mm 5 mps 756 mmHg 68%
    14:00 +33°C° 0.9 mm 5 mps 755 mmHg 71%
    15:00 +32°C° 0.9 mm 4 mps 755 mmHg 74%
    16:00 +30°C° 2.3 mm 4 mps 755 mmHg 80%
    17:00 +29°C° 2.3 mm 3 mps 755 mmHg 86%
    18:00 +27°C° 2.3 mm 3 mps 756 mmHg 91%
    19:00 +27°C° 0.4 mm 3 mps 756 mmHg 91%
    20:00 +27°C° 0.4 mm 3 mps 757 mmHg 91%
    21:00 +27°C° 0.4 mm 4 mps 758 mmHg 91%
    22:00 +27°C° 0.2 mm 4 mps 758 mmHg 92%
    23:00 +27°C° 0.2 mm 4 mps 758 mmHg 92%

    Day after tomorrow, 25 September, Wednesday

    Time Temperature Precipitation Wind Pressure Humidity
    00:00 +27°C° 0.2 mm 4 mps 758 mmHg 92%
    01:00 +27°C° 0 mm 4 mps 757 mmHg 92%
    02:00 +27°C° 0 mm 4 mps 757 mmHg 92%
    03:00 +26°C° 0 mm 4 mps 757 mmHg 92%
    04:00 +26°C° 0 mm 4 mps 757 mmHg 92%
    05:00 +26°C° 0 mm 4 mps 757 mmHg 92%
    06:00 +26°C° 0 mm 3 mps 758 mmHg 92%
    07:00 +27°C° 0 mm 4 mps 758 mmHg 90%
    08:00 +27°C° 0 mm 4 mps 759 mmHg 87%
    09:00 +28°C° 0 mm 4 mps 760 mmHg 85%
    10:00 +29°C° 0.5 mm 4 mps 759 mmHg 82%
    11:00 +30°C° 0.5 mm 5 mps 759 mmHg 78%
    12:00 +32°C° 0.5 mm 5 mps 759 mmHg 74%
    13:00 +32°C° 1.3 mm 4 mps 758 mmHg 76%
    14:00 +30°C° 1.3 mm 4 mps 758 mmHg 77%
    15:00 +30°C° 1.3 mm 3 mps 757 mmHg 79%
    16:00 +29°C° 0.6 mm 3 mps 757 mmHg 81%
    17:00 +29°C° 0.6 mm 2 mps 757 mmHg 84%
    18:00 +28°C° 0.6 mm 2 mps 757 mmHg 86%
    19:00 +28°C° 0.5 mm 2 mps 758 mmHg 87%
    20:00 +28°C° 0.5 mm 1 mps 759 mmHg 88%
    21:00 +27°C° 0.5 mm 1 mps 759 mmHg 90%
    22:00 +27°C° 0.3 mm 1 mps 759 mmHg 89%
    23:00 +27°C° 0.3 mm 1 mps 759 mmHg 89%

    26 September, Thursday

    Time Temperature Precipitation Wind Pressure Humidity
    00:00 +27°C° 0.3 mm 1 mps 759 mmHg 89%
    01:00 +27°C° 0.3 mm 1 mps 759 mmHg 89%
    02:00 +27°C° 0.3 mm 2 mps 759 mmHg 89%
    03:00 +27°C° 0.3 mm 2 mps 758 mmHg 88%
    04:00 +26°C° 0.4 mm 2 mps 759 mmHg 90%
    05:00 +26°C° 0.4 mm 1 mps 759 mmHg 91%
    06:00 +26°C° 0.4 mm 1 mps 759 mmHg 92%
    07:00 +27°C° 0.3 mm 1 mps 759 mmHg 90%
    08:00 +27°C° 0.3 mm 1 mps 760 mmHg 87%
    09:00 +28°C° 0.3 mm 2 mps 760 mmHg 85%
    10:00 +29°C° 0.8 mm 2 mps 760 mmHg 81%
    11:00 +29°C° 0.8 mm 1 mps 759 mmHg 78%
    12:00 +30°C° 0.8 mm 1 mps 759 mmHg 75%
    13:00 +30°C° 1.5 mm 2 mps 758 mmHg 75%
    14:00 +30°C° 1.5 mm 2 mps 757 mmHg 76%
    15:00 +30°C° 1.5 mm 2 mps 756 mmHg 77%
    16:00 +29°C° 1 mm 2 mps 756 mmHg 81%
    17:00 +28°C° 1 mm 2 mps 756 mmHg 85%
    18:00 +28°C° 1 mm 3 mps 756 mmHg 89%
    19:00 +27°C° 0 mm 2 mps 757 mmHg 90%
    20:00 +27°C° 0 mm 2 mps 757 mmHg 91%
    21:00 +27°C° 0 mm 2 mps 758 mmHg 92%
    22:00 +26°C° 0 mm 2 mps 758 mmHg 92%
    23:00 +26°C° 0 mm 1 mps 758 mmHg 92%

    27 September, Friday

    Time Temperature Precipitation Wind Pressure Humidity
    00:00 +26°C° 0 mm 1 mps 758 mmHg 92%
    01:00 +26°C° 0 mm 1 mps 758 mmHg 92%
    02:00 +26°C° 0 mm 1 mps 757 mmHg 91%
    03:00 +26°C° 0 mm 1 mps 757 mmHg 91%
    04:00 +25°C° 0 mm 1 mps 757 mmHg 91%
    05:00 +25°C° 0 mm 1 mps 757 mmHg 91%
    06:00 +25°C° 0 mm 1 mps 757 mmHg 91%
    07:00 +27°C° 0 mm 1 mps 758 mmHg 86%
    08:00 +28°C° 0 mm 2 mps 758 mmHg 81%
    09:00 +30°C° 0 mm 2 mps 759 mmHg 77%
    10:00 +31°C° 0 mm 2 mps 758 mmHg 72%
    11:00 +32°C° 0 mm 2 mps 757 mmHg 67%
    12:00 +34°C° 0 mm 2 mps 757 mmHg 62%
    13:00 +33°C° 0.2 mm 1 mps 756 mmHg 62%
    14:00 +33°C° 0.2 mm 1 mps 755 mmHg 62%
    15:00 +33°C° 0.2 mm 1 mps 754 mmHg 61%
    16:00 +32°C° 0 mm 1 mps 754 mmHg 66%
    17:00 +31°C° 0 mm 1 mps 754 mmHg 70%
    18:00 +30°C° 0 mm 1 mps 754 mmHg 74%
    19:00 +30°C° 0.3 mm 1 mps 755 mmHg 77%
    20:00 +29°C° 0.3 mm 1 mps 755 mmHg 80%
    21:00 +28°C° 0.3 mm 1 mps 756 mmHg 83%
    22:00 +28°C° 0 mm 1 mps 756 mmHg 84%
    23:00 +28°C° 0 mm 1 mps 756 mmHg 86%

    28 September, Saturday

    Time Temperature Precipitation Wind Pressure Humidity
    00:00 +28°C° 0 mm 1 mps 755 mmHg 87%
    01:00 +27°C° 0 mm 1 mps 755 mmHg 87%
    02:00 +25°C° 0 mm 0 mps 755 mmHg 87%
    03:00 +25°C° 0 mm 0 mps 755 mmHg 88%
    04:00 +25°C° 0 mm 0 mps 755 mmHg 88%
    05:00 +25°C° 0 mm 0 mps 755 mmHg 88%
    06:00 +25°C° 0 mm 0 mps 755 mmHg 88%
    07:00 +26°C° 0 mm 0 mps 755 mmHg 83%
    08:00 +29°C° 0 mm 1 mps 756 mmHg 78%
    09:00 +31°C° 0 mm 1 mps 756 mmHg 72%
    10:00 +32°C° 0.1 mm 2 mps 756 mmHg 68%
    11:00 +34°C° 0.1 mm 2 mps 755 mmHg 64%
    12:00 +35°C° 0.1 mm 3 mps 755 mmHg 60%
    13:00 +35°C° 1.3 mm 3 mps 754 mmHg 61%
    14:00 +34°C° 1.3 mm 4 mps 753 mmHg 63%
    15:00 +34°C° 1.3 mm 5 mps 752 mmHg 65%
    16:00 +33°C° 1.1 mm 5 mps 753 mmHg 70%
    17:00 +30°C° 1.1 mm 4 mps 753 mmHg 74%
    18:00 +29°C° 1.1 mm 4 mps 753 mmHg 79%
    19:00 +29°C° 0 mm 3 mps 754 mmHg 80%
    20:00 +28°C° 0 mm 3 mps 755 mmHg 82%
    21:00 +28°C° 0 mm 2 mps 755 mmHg 84%
    22:00 +27°C° 0 mm 2 mps 755 mmHg 84%
    23:00 +27°C° 0 mm 2 mps 755 mmHg 83%
    Show more